TimeEDT,TemperatureF,Dew PointF,Humidity,Sea Level PressureIn,VisibilityMPH,Wind Direction,Wind SpeedMPH,Gust SpeedMPH,PrecipitationIn,Events,Conditions,WindDirDegrees,DateUTC
12:31 AM,71.6,69.8,94,29.86,8.0,SSE,3.5,-,N/A,,Overcast,150,2013-07-01 04:31:00
12:39 AM,71.6,69.8,94,29.86,9.0,Calm,Calm,-,N/A,,Overcast,0,2013-07-01 04:39:00
12:53 AM,72.0,69.1,91,29.85,9.0,Calm,Calm,-,N/A,,Overcast,0,2013-07-01 04:53:00
1:14 AM,71.6,69.8,94,29.85,9.0,Calm,Calm,-,N/A,,Overcast,0,2013-07-01 05:14:00
1:53 AM,72.0,70.0,93,29.85,7.0,West,10.4,18.4,0.00,Rain,Light Rain,280,2013-07-01 05:53:00
2:03 AM,71.6,69.8,94,29.86,2.5,West,6.9,-,0.11,Rain,Light Rain,270,2013-07-01 06:03:00
2:10 AM,71.6,69.8,94,29.86,1.5,West,6.9,-,0.16,Rain,Heavy Rain,270,2013-07-01 06:10:00
2:13 AM,71.6,69.8,94,29.86,2.0,West,4.6,-,0.17,Rain,Heavy Rain,270,2013-07-01 06:13:00
2:21 AM,71.6,69.8,94,29.85,5.0,Calm,Calm,-,0.19,Rain,Light Rain,0,2013-07-01 06:21:00
2:29 AM,71.6,69.8,94,29.85,1.8,West,4.6,-,0.25,Rain,Heavy Rain,280,2013-07-01 06:29:00
2:35 AM,71.6,69.8,94,29.84,3.0,Calm,Calm,-,0.27,Rain,Rain,0,2013-07-01 06:35:00
2:53 AM,71.1,69.1,93,29.83,5.0,West,6.9,-,0.29,Rain,Heavy Rain,280,2013-07-01 06:53:00
3:03 AM,71.6,69.8,94,29.84,5.0,West,6.9,-,0.02,Rain,Rain,280,2013-07-01 07:03:00
3:34 AM,71.6,69.8,94,29.85,1.8,Calm,Calm,-,0.16,Rain,Heavy Rain,0,2013-07-01 07:34:00
3:36 AM,71.6,69.8,94,29.85,1.2,WSW,3.5,-,0.19,Rain,Heavy Rain,250,2013-07-01 07:36:00
3:44 AM,69.8,69.8,100,29.86,2.0,SW,6.9,-,0.25,Rain,Heavy Rain,230,2013-07-01 07:44:00
3:53 AM,70.0,69.1,97,29.85,2.0,SW,4.6,-,0.32,Rain,Heavy Rain,220,2013-07-01 07:53:00
4:31 AM,69.8,66.2,88,29.85,1.5,Variable,4.6,-,0.39,Rain,Heavy Rain,0,2013-07-01 08:31:00
4:43 AM,69.8,66.2,88,29.84,2.0,Calm,Calm,-,0.49,Rain,Rain,0,2013-07-01 08:43:00
4:53 AM,69.1,66.9,93,29.83,5.0,SE,3.5,-,0.51,Rain,Rain,130,2013-07-01 08:53:00
5:13 AM,69.8,66.2,88,29.85,1.8,Calm,Calm,-,0.12,Rain,Heavy Rain,0,2013-07-01 09:13:00
5:21 AM,69.8,66.2,88,29.86,3.0,WNW,5.8,-,0.14,Rain,Rain,290,2013-07-01 09:21:00
5:28 AM,69.8,68.0,94,29.87,1.8,SW,4.6,-,0.23,Rain,Heavy Rain,230,2013-07-01 09:28:00
5:38 AM,69.8,68.0,94,29.86,2.0,Calm,Calm,-,0.32,Rain,Heavy Rain,0,2013-07-01 09:38:00
5:53 AM,70.0,68.0,93,29.86,7.0,Calm,Calm,-,0.36,Rain,Light Rain,0,2013-07-01 09:53:00
6:50 AM,69.8,68.0,94,29.87,10.0,Calm,Calm,-,0.00,,Overcast,0,2013-07-01 10:50:00
6:53 AM,70.0,68.0,93,29.87,10.0,SE,3.5,-,0.00,,Overcast,130,2013-07-01 10:53:00
7:53 AM,71.1,69.1,93,29.89,10.0,East,3.5,-,0.00,,Overcast,100,2013-07-01 11:53:00
8:53 AM,72.0,69.1,91,29.90,10.0,SE,3.5,-,0.00,Rain,Light Rain,140,2013-07-01 12:53:00
9:21 AM,73.4,69.8,88,29.91,10.0,Calm,Calm,-,0.00,,Overcast,0,2013-07-01 13:21:00
9:53 AM,75.0,71.1,87,29.91,10.0,South,3.5,-,0.00,,Overcast,180,2013-07-01 13:53:00
10:06 AM,75.2,71.6,89,29.91,10.0,SSW,5.8,-,N/A,,Overcast,210,2013-07-01 14:06:00
10:32 AM,75.2,71.6,89,29.91,10.0,SW,10.4,-,N/A,,Overcast,220,2013-07-01 14:32:00
10:40 AM,77.0,71.6,83,29.91,10.0,SW,8.1,-,N/A,,Mostly Cloudy,230,2013-07-01 14:40:00
10:53 AM,77.0,71.1,82,29.91,10.0,SSW,6.9,-,N/A,,Mostly Cloudy,210,2013-07-01 14:53:00
11:08 AM,78.8,71.6,78,29.92,10.0,SW,8.1,-,N/A,,Overcast,220,2013-07-01 15:08:00
11:42 AM,78.8,71.6,78,29.91,10.0,SW,4.6,-,N/A,,Scattered Clouds,230,2013-07-01 15:42:00
11:53 AM,80.1,71.1,74,29.90,10.0,West,5.8,-,N/A,,Partly Cloudy,280,2013-07-01 15:53:00
12:53 PM,82.9,70.0,65,29.91,10.0,West,9.2,-,N/A,,Partly Cloudy,260,2013-07-01 16:53:00
1:53 PM,82.9,71.1,67,29.91,10.0,West,3.5,-,N/A,,Mostly Cloudy,260,2013-07-01 17:53:00
2:53 PM,84.0,70.0,63,29.88,10.0,Calm,Calm,-,N/A,,Scattered Clouds,0,2013-07-01 18:53:00
3:47 PM,77.0,73.4,89,29.91,1.8,SSE,4.6,-,0.09,Rain,Heavy Rain,150,2013-07-01 19:47:00
3:48 PM,77.0,73.9,90,29.90,1.8,SSE,4.6,-,0.09,Rain,Heavy Rain,150,2013-07-01 19:48:00
3:53 PM,77.0,73.4,89,29.91,3.0,SSE,5.8,-,0.00,Rain,Light Rain,160,2013-07-01 19:53:00
4:53 PM,75.9,73.0,91,29.93,4.0,Calm,Calm,-,0.06,Rain,Rain,0,2013-07-01 20:53:00
5:18 PM,75.2,73.4,94,29.93,3.0,SSW,3.5,-,0.06,Rain,Rain,200,2013-07-01 21:18:00
5:35 PM,75.2,73.4,94,29.93,8.0,SSE,5.8,-,0.07,Rain,Light Rain,150,2013-07-01 21:35:00
5:43 PM,75.2,73.4,94,29.92,9.0,SE,4.6,-,0.07,Rain,Light Rain,140,2013-07-01 21:43:00
5:53 PM,75.9,72.0,87,29.91,10.0,SSE,5.8,-,0.07,,Mostly Cloudy,160,2013-07-01 21:53:00
6:05 PM,75.2,71.6,89,29.92,10.0,SSE,4.6,-,N/A,,Scattered Clouds,150,2013-07-01 22:05:00
6:53 PM,73.9,71.1,91,29.91,10.0,Calm,Calm,-,N/A,,Scattered Clouds,0,2013-07-01 22:53:00
7:53 PM,73.9,71.1,91,29.94,10.0,SSE,5.8,-,N/A,,Clear,150,2013-07-01 23:53:00
8:53 PM,73.0,71.1,93,29.97,10.0,South,4.6,-,N/A,,Scattered Clouds,170,2013-07-02 00:53:00
9:11 PM,73.4,71.6,94,29.98,10.0,South,5.8,-,N/A,,Mostly Cloudy,180,2013-07-02 01:11:00
9:20 PM,73.4,71.6,94,29.98,10.0,South,5.8,-,N/A,,Mostly Cloudy,180,2013-07-02 01:20:00
9:53 PM,73.0,71.1,93,29.98,10.0,SSE,4.6,-,N/A,,Overcast,160,2013-07-02 01:53:00
10:53 PM,73.9,72.0,93,29.99,10.0,South,6.9,-,N/A,,Overcast,170,2013-07-02 02:53:00
11:53 PM,73.9,72.0,93,30.01,10.0,South,8.1,-,N/A,,Mostly Cloudy,190,2013-07-02 03:53:00